| time (UTC) | temp C | wind direction | speed KPH | gust KPH | rain 1hr cm | rain 24hr cm | rain mn cm | humidity % | barometer mb |
| 20260906224504 | 24 | 54 | 0.0 | 0.0 | 0.00 | 0.00 | 0.00 | 65 | 1013.8 |
| 20260906223004 | 25 | 54 | 0.0 | 3.2 | 0.00 | 0.00 | 0.00 | 63 | 1013.7 |
| 20260906221503 | 25 | 94 | 0.0 | 4.8 | 0.00 | 0.00 | 0.00 | 61 | 1013.9 |
| 20260906220004 | 25 | 65 | 0.0 | 1.6 | 0.00 | 0.00 | 0.00 | 60 | 1013.8 |
| 20260906214505 | 25 | 44 | 0.0 | 8.0 | 0.00 | 0.00 | 0.00 | 60 | 1013.9 |
| 20260906213004 | 26 | 58 | 1.6 | 9.7 | 0.00 | 0.00 | 0.00 | 59 | 1013.9 |
| 20260906211504 | 26 | 86 | 0.0 | 11.3 | 0.00 | 0.00 | 0.00 | 59 | 1013.8 |
| 20260906210004 | 26 | 51 | 0.0 | 8.0 | 0.00 | 0.00 | 0.00 | 59 | 1013.7 |
| 20260906204504 | 26 | 57 | 1.6 | 11.3 | 0.00 | 0.00 | 0.00 | 59 | 1013.8 |
| 20260906203004 | 27 | 56 | 0.0 | 1.6 | 0.00 | 0.00 | 0.00 | 58 | 1013.8 |
| 20260906201504 | 27 | 47 | 0.0 | 4.8 | 0.00 | 0.00 | 0.00 | 58 | 1013.8 |
| 20260906200006 | 27 | 93 | 0.0 | 3.2 | 0.00 | 0.00 | 0.00 | 59 | 1013.8 |
| 20260906194505 | 27 | 104 | 1.6 | 4.8 | 0.00 | 0.00 | 0.00 | 58 | 1013.8 |
| 20260906193004 | 27 | 61 | 1.6 | 8.0 | 0.00 | 0.00 | 0.00 | 54 | 1014.0 |
| 20260906191504 | 27 | 59 | 0.0 | 4.8 | 0.00 | 0.00 | 0.00 | 58 | 1014.0 |
| 20260906190004 | 27 | 9 | 1.6 | 11.3 | 0.00 | 0.00 | 0.00 | 57 | 1014.0 |
| 20260906184504 | 27 | 63 | 0.0 | 4.8 | 0.00 | 0.00 | 0.00 | 58 | 1014.0 |
| 20260906183004 | 27 | 122 | 0.0 | 9.7 | 0.00 | 0.00 | 0.00 | 59 | 1014.2 |
| 20260906181504 | 26 | 66 | 3.2 | 12.9 | 0.00 | 0.00 | 0.00 | 55 | 1014.3 |
| 20260906180004 | 26 | 18 | 1.6 | 4.8 | 0.00 | 0.00 | 0.00 | 60 | 1014.2 |
| 20260906174504 | 26 | 82 | 0.0 | 4.8 | 0.00 | 0.00 | 0.00 | 61 | 1014.4 |
| 20260906170005 | 26 | 58 | 1.6 | 11.3 | 0.00 | 0.00 | 0.00 | 62 | 1014.6 |
| 20260906164504 | 25 | 43 | 1.6 | 8.0 | 0.00 | 0.00 | 0.00 | 64 | 1014.8 |
| 20260906163004 | 25 | 124 | 0.0 | 8.0 | 0.00 | 0.00 | 0.00 | 66 | 1014.8 |
| 20260906160004 | 25 | 41 | 0.0 | 4.8 | 0.00 | 0.00 | 0.00 | 67 | 1015.1 |
| 20260906154504 | 24 | 61 | 0.0 | 4.8 | 0.00 | 0.00 | 0.00 | 71 | 1015.2 |
| 20260906151504 | 23 | 37 | 1.6 | 9.7 | 0.00 | 0.00 | 0.00 | 70 | 1015.0 |
| 20260906150004 | 22 | 21 | 1.6 | 4.8 | 0.00 | 0.00 | 0.00 | 70 | 1014.8 |
| 20260906144504 | 22 | 89 | 3.2 | 11.3 | 0.00 | 0.00 | 0.00 | 71 | 1014.9 |
| 20260906143005 | 22 | 44 | 0.0 | 4.8 | 0.00 | 0.00 | 0.00 | 72 | 1014.8 |
| 20260906141503 | 21 | 78 | 0.0 | 3.2 | 0.00 | 0.00 | 0.00 | 74 | 1014.6 |
| 20260906140004 | 21 | 31 | 0.0 | 4.8 | 0.00 | 0.00 | 0.00 | 76 | 1014.7 |
| 20260906133003 | 20 | 5 | 0.0 | 1.6 | 0.00 | 0.00 | 0.00 | 80 | 1014.6 |
| 20260906131504 | 20 | 13 | 0.0 | 0.0 | 0.00 | 0.00 | 0.00 | 81 | 1014.4 |
| 20260906130004 | 20 | 13 | 0.0 | 4.8 | 0.00 | 0.00 | 0.00 | 81 | 1014.3 |
| 20260906124504 | 20 | 5 | 0.0 | 4.8 | 0.00 | 0.00 | 0.00 | 81 | 1014.1 |
| 20260906123004 | 19 | 55 | 0.0 | 1.6 | 0.00 | 0.00 | 0.00 | 82 | 1014.0 |
| 20260906121504 | 19 | 55 | 0.0 | 0.0 | 0.00 | 0.00 | 0.00 | 82 | 1013.7 |
| 20260906120004 | 19 | 55 | 0.0 | 0.0 | 0.00 | 0.00 | 0.00 | 81 | 1013.4 |
| 20260906114504 | 19 | 55 | 0.0 | 0.0 | 0.00 | 0.00 | 0.00 | 82 | 1013.2 |
| 20260906113004 | 19 | 55 | 0.0 | 0.0 | 0.00 | 0.00 | 0.00 | 84 | 1013.0 |
| 20260906111503 | 18 | 55 | 0.0 | 0.0 | 0.00 | 0.00 | 0.00 | 85 | 1012.8 |
| 20260906110004 | 18 | 55 | 0.0 | 0.0 | 0.00 | 0.00 | 0.00 | 85 | 1012.6 |
| 20260906104504 | 18 | 55 | 0.0 | 0.0 | 0.00 | 0.00 | 0.00 | 86 | 1012.5 |
| 20260906101503 | 18 | 55 | 0.0 | 0.0 | 0.00 | 0.20 | 0.00 | 86 | 1012.5 |
| 20260906100004 | 18 | 55 | 0.0 | 0.0 | 0.00 | 0.23 | 0.00 | 86 | 1012.3 |
| 20260906094504 | 18 | 55 | 0.0 | 0.0 | 0.00 | 0.23 | 0.00 | 86 | 1012.2 |
| 20260906093003 | 19 | 30 | 0.0 | 0.0 | 0.00 | 0.25 | 0.00 | 87 | 1012.0 |
| 20260906091504 | 19 | 30 | 0.0 | 0.0 | 0.00 | 0.25 | 0.00 | 87 | 1012.2 |
| 20260906090004 | 19 | 30 | 0.0 | 0.0 | 0.00 | 0.25 | 0.00 | 88 | 1012.0 |
| 20260906083004 | 20 | 29 | 0.0 | 0.0 | 0.00 | 0.25 | 0.00 | 89 | 1011.9 |
| 20260906081504 | 20 | 29 | 0.0 | 1.6 | 0.00 | 0.25 | 0.00 | 89 | 1011.9 |
| 20260906080004 | 20 | 355 | 0.0 | 0.0 | 0.00 | 0.25 | 0.00 | 90 | 1011.8 |
| 20260906074503 | 20 | 355 | 0.0 | 0.0 | 0.00 | 0.25 | 0.00 | 90 | 1011.7 |
| 20260906073004 | 20 | 355 | 0.0 | 1.6 | 0.00 | 0.25 | 0.00 | 90 | 1011.7 |
| 20260906071504 | 20 | 355 | 0.0 | 1.6 | 0.00 | 0.25 | 0.00 | 91 | 1011.8 |
| 20260906064504 | 21 | 355 | 0.0 | 0.0 | 0.00 | 0.25 | 0.00 | 91 | 1011.9 |
| 20260906063004 | 21 | 355 | 0.0 | 1.6 | 0.00 | 0.25 | 0.00 | 91 | 1011.9 |
| 20260906061504 | 21 | 5 | 0.0 | 0.0 | 0.00 | 0.25 | 0.00 | 91 | 1012.1 |
| 20260906060004 | 21 | 5 | 0.0 | 0.0 | 0.00 | 0.25 | 0.00 | 91 | 1012.0 |
| 20260906054504 | 21 | 5 | 0.0 | 0.0 | 0.00 | 0.25 | 0.00 | 91 | 1011.6 |
| 20260906053004 | 22 | 5 | 0.0 | 0.0 | 0.00 | 0.25 | 0.00 | 91 | 1011.6 |
| 20260906050004 | 22 | 5 | 0.0 | 0.0 | 0.00 | 0.25 | 0.00 | 91 | 1011.4 |
| 20260906044504 | 22 | 5 | 0.0 | 0.0 | 0.00 | 0.25 | 0.00 | 91 | 1011.2 |
| 20260906043004 | 22 | 5 | 0.0 | 0.0 | 0.00 | 0.25 | 0.00 | 91 | 1011.0 |
| 20260906041504 | 23 | 5 | 0.0 | 0.0 | 0.00 | 0.25 | 0.00 | 91 | 1010.8 |
| 20260906040004 | 23 | 355 | 0.0 | 0.0 | 0.00 | 0.25 | 0.00 | 91 | 1010.9 |
| 20260906033003 | 23 | 355 | 0.0 | 0.0 | 0.00 | 0.25 | 0.25 | 91 | 1010.9 |
| 20260906024503 | 23 | 355 | 0.0 | 0.0 | 0.00 | 0.25 | 0.25 | 90 | 1011.1 |
| 20260906023004 | 23 | 355 | 0.0 | 0.0 | 0.00 | 0.25 | 0.25 | 90 | 1011.2 |
| 20260906021503 | 23 | 355 | 0.0 | 0.0 | 0.00 | 0.25 | 0.25 | 90 | 1010.9 |
| 20260906020004 | 24 | 355 | 0.0 | 0.0 | 0.00 | 0.25 | 0.25 | 89 | 1011.0 |
| 20260906014506 | 24 | 355 | 0.0 | 0.0 | 0.00 | 0.25 | 0.25 | 89 | 1010.9 |
| 20260906013004 | 25 | 355 | 0.0 | 0.0 | 0.00 | 0.25 | 0.25 | 88 | 1010.8 |
| 20260906011503 | 25 | 355 | 0.0 | 0.0 | 0.00 | 0.25 | 0.25 | 87 | 1010.6 |
| 20260906010004 | 25 | 355 | 0.0 | 0.0 | 0.00 | 0.25 | 0.25 | 86 | 1010.3 |
| 20260906004504 | 25 | 355 | 0.0 | 0.0 | 0.00 | 0.25 | 0.25 | 84 | 1010.2 |
| 20260906001504 | 25 | 355 | 0.0 | 0.0 | 0.00 | 0.25 | 0.25 | 83 | 1009.9 |
| 20260906000004 | 25 | 355 | 0.0 | 3.2 | 0.00 | 0.25 | 0.25 | 83 | 1009.8 |
| 20260905233004 | 26 | 57 | 0.0 | 0.0 | 0.00 | 0.25 | 0.25 | 84 | 1010.2 |
| 20260905231504 | 27 | 57 | 0.0 | 0.0 | 0.00 | 0.25 | 0.25 | 84 | 1009.6 |
| 20260905230004 | 27 | 57 | 0.0 | 0.0 | 0.00 | 0.25 | 0.25 | 84 | 1009.9 |